[[{"header":{"parameterUnit":"m.s-1","parameterCategory":1,"la1":30.2991,"la2":30.254,"lo1":-89.0895,"lo2":-89.0444,"dy":0.0017,"dx":0.0017,"nx":28,"ny":28,"refTime":"2025-04-14T03:00:00:Z","depth":0,"parameterNumber":2,"parameterNumberName":"U-component_of_WINDS"},"data":[0,0,0,0,0,0,0,0,0,0,0,0,0,0,0,0,0,0,0,0,0,0,0,0,0,0,0,0,0,0,0,0,0,0,0,0,0,0,0,0,0,0,0,0,0,0,0,0,0,0,0,0,0,0,0,0,0,0,-0.2964,-0.2963,0,-0.2939,-0.2938,-0.2938,-0.291,-0.291,-0.291,-0.2909,-0.2883,-0.2883,-0.2883,0,0,0,0,0,0,0,0,0,0,0,0,0,-0.2986,-0.2986,-0.2964,-0.2963,-0.2963,-0.2939,-0.2938,-0.2938,-0.2911,-0.291,-0.291,-0.2909,-0.2884,-0.2883,-0.2883,0,0,0,0,0,0,0,0,0,0,0,0,0,-0.297,-0.2986,-0.2964,-0.2947,-0.2945,-0.2939,-0.2938,-0.2938,-0.2911,-0.291,-0.2909,-0.2909,-0.2884,-0.2883,-0.2883,-0.2892,0,0,-0.2881,-0.2881,0,0,0,0,0,0,0,0,-0.2971,-0.297,-0.2949,-0.2948,-0.2946,-0.2927,-0.2937,-0.2922,-0.2911,-0.2924,-0.2909,-0.2909,-0.2898,-0.2897,-0.2893,-0.2891,-0.2889,-0.2881,-0.2881,-0.2881,-0.2881,0,0,0,0,0,0,0,-0.2972,-0.2971,-0.2954,-0.2949,-0.2947,-0.2939,-0.2937,-0.2934,-0.2915,-0.2922,-0.292,-0.2918,-0.2897,-0.2894,-0.2893,-0.2889,-0.2881,-0.2881,-0.2881,-0.288,-0.289,-0.2891,0,0,0,0,0,0,-0.2976,-0.2972,-0.2955,-0.2953,-0.2957,-0.294,-0.2936,-0.2934,-0.2915,-0.2911,-0.2918,-0.2917,-0.2895,-0.2893,-0.2892,-0.29,-0.2881,-0.288,-0.288,-0.289,-0.289,-0.2891,0,0,0,0,0,0,-0.2977,-0.2975,-0.2956,-0.2962,-0.2959,-0.294,-0.2937,-0.2933,-0.293,-0.2912,-0.2908,-0.2918,-0.2894,-0.2892,-0.2891,-0.2898,-0.288,-0.288,-0.2889,-0.289,-0.2891,-0.2917,0,0,0,0,0,0,-0.2978,-0.2975,-0.2979,-0.2962,-0.2959,-0.2957,-0.2938,-0.2933,-0.2929,-0.2927,-0.2911,-0.2907,-0.2894,-0.2892,-0.2891,-0.2897,-0.2879,-0.2888,-0.289,-0.289,-0.2915,-0.2918,-0.2921,0,0,0,0,0,-0.2979,-0.2988,-0.298,-0.2978,-0.2963,-0.2957,-0.2955,-0.2939,-0.293,-0.2933,-0.2921,-0.2908,-0.2898,-0.2893,-0.2891,-0.2897,-0.2888,-0.2889,-0.289,-0.2914,-0.2918,-0.2921,0,0,0,0,0,0,-0.3007,-0.2986,-0.2976,-0.298,-0.2971,-0.2953,-0.2956,-0.2944,-0.2937,-0.2935,-0.2915,-0.2912,-0.2913,-0.2905,-0.29,-0.2904,-0.2891,-0.2892,-0.2909,-0.2913,-0.2916,-0.2918,-0.2879,0,0,0,0,0,-0.3014,-0.3011,-0.2992,-0.2998,-0.2993,-0.2976,-0.2973,-0.2961,-0.295,-0.2946,-0.2934,-0.2924,-0.2918,-0.2915,-0.2909,-0.2914,-0.2909,-0.2917,-0.292,-0.2922,-0.2924,-0.2924,-0.2927,-0.2895,-0.2895,-0.2895,0,0,-0.3028,-0.3015,-0.3015,-0.3003,-0.2994,-0.2991,-0.2973,-0.2971,-0.2968,-0.2946,-0.2944,-0.2935,-0.2922,-0.2924,-0.2924,-0.2917,-0.2931,-0.2924,-0.2926,-0.2926,-0.2925,-0.2928,-0.2931,-0.2896,-0.2896,-0.2896,0,0,-0.3051,-0.3042,-0.3045,-0.3037,-0.3023,-0.3011,-0.3012,-0.2995,-0.2988,-0.2986,-0.2968,-0.2965,-0.2956,-0.2947,-0.2941,-0.296,-0.2947,-0.2958,-0.2974,-0.2974,-0.2977,-0.2979,-0.2984,-0.2986,-0.2959,-0.2959,-0.2959,0,-0.307,-0.3066,-0.3048,-0.3047,-0.3042,-0.3021,-0.3023,-0.3015,-0.3001,-0.2997,-0.2989,-0.2976,-0.2967,-0.2965,-0.2969,-0.2966,-0.2965,-0.296,-0.2978,-0.298,-0.2981,-0.2986,-0.2988,-0.2961,-0.296,-0.296,-0.296,0,-0.3089,-0.3086,-0.309,-0.3076,-0.3071,-0.3071,-0.3053,-0.305,-0.3038,-0.3027,-0.3024,-0.3011,-0.3001,-0.3,-0.2989,-0.2996,-0.2992,-0.2981,-0.2968,-0.2986,-0.299,-0.2992,-0.2963,-0.2962,-0.2962,-0.2961,0,0,-0.3132,-0.3106,-0.3108,-0.3101,-0.3084,-0.3081,-0.3079,-0.3069,-0.3067,-0.3057,-0.3055,-0.3047,-0.3036,-0.3029,-0.3017,-0.3017,-0.3031,-0.3006,-0.3006,-0.3011,-0.3037,-0.3045,-0.3048,-0.3022,-0.3023,-0.3023,-0.3038,0,-0.3152,-0.3149,-0.3132,-0.3134,-0.313,-0.3109,-0.3108,-0.3097,-0.3085,-0.308,-0.3067,-0.3061,-0.3048,-0.3044,-0.3043,-0.303,-0.3036,-0.3028,-0.3019,-0.3019,-0.3023,-0.305,-0.3059,-0.3074,-0.3039,-0.304,-0.304,0,-0.3176,-0.3167,-0.3168,-0.3149,-0.3147,-0.3146,-0.3135,-0.313,-0.3116,-0.3108,-0.31,-0.3085,-0.3082,-0.3069,-0.3063,-0.3058,-0.3053,-0.3046,-0.3046,-0.3045,-0.3031,-0.3049,-0.3078,-0.308,-0.3043,-0.3042,-0.3042,0,-0.3205,-0.3193,-0.3192,-0.3187,-0.3165,-0.3165,-0.3156,-0.3141,-0.3136,-0.3126,-0.3122,-0.3111,-0.3106,-0.3097,-0.308,-0.3073,-0.3076,-0.3062,-0.3068,-0.3068,-0.307,-0.307,-0.3098,-0.3067,-0.3067,-0.3067,-0.3067,0,-0.323,-0.3231,-0.3205,-0.3204,-0.3204,-0.3185,-0.3185,-0.3174,-0.3161,-0.3157,-0.3138,-0.3135,-0.3112,-0.3106,-0.3092,-0.3089,-0.3086,-0.3079,-0.3075,-0.308,-0.3081,-0.3077,-0.3075,-0.3068,-0.3068,-0.3067,-0.3067,0,-0.3263,-0.3246,-0.3243,-0.3222,-0.3217,-0.3218,-0.32,-0.3198,-0.3185,-0.318,-0.3177,-0.3157,-0.3148,-0.3129,-0.3116,-0.3106,-0.3106,-0.31,-0.3111,-0.3108,-0.3115,-0.3114,-0.3142,-0.3144,-0.3112,-0.3112,-0.3112,0,-0.328,-0.328,-0.3259,-0.3255,-0.3247,-0.3241,-0.3234,-0.3214,-0.3209,-0.3192,-0.3192,-0.3181,-0.3172,-0.3159,-0.3142,-0.3131,-0.3124,-0.3134,-0.3122,-0.3127,-0.3123,-0.3123,-0.3123,-0.3137,-0.3137,-0.3138,-0.3138,0,-0.3311,-0.3302,-0.3294,-0.3283,-0.3276,-0.3266,-0.3255,-0.3253,-0.323,-0.3224,-0.3215,-0.3208,-0.3193,-0.3183,-0.3169,-0.3159,-0.3144,-0.3142,-0.3142,-0.3148,-0.3154,-0.315,-0.3117,-0.3141,-0.3141,-0.3141,-0.3141,-0.3141,-0.3336,-0.3335,-0.3319,-0.3311,-0.33,-0.329,-0.3287,-0.3272,-0.3264,-0.3251,-0.3239,-0.3231,-0.3215,-0.3195,-0.3185,-0.3178,-0.3171,-0.3172,-0.3172,-0.3173,-0.3175,-0.3155,-0.3175,-0.3175,-0.3175,-0.3175,-0.3175,0,-0.3365,-0.3354,-0.3346,-0.3331,-0.3324,-0.3311,-0.3298,-0.3292,-0.3285,-0.3272,-0.3263,-0.3251,-0.324,-0.3222,-0.321,-0.3207,-0.32,-0.3204,-0.3204,-0.3202,-0.3182,-0.3182,-0.321,-0.321,-0.321,-0.321,-0.321,-0.321,-0.338,-0.3377,-0.3366,-0.3356,-0.3345,-0.3336,-0.3329,-0.3319,-0.3309,-0.3296,-0.3287,-0.3275,-0.326,-0.3246,-0.3235,-0.3229,-0.3225,-0.3232,-0.3225,-0.3207,-0.3203,-0.32,-0.32,-0.3231,-0.3231,-0.3245,-0.3245,-0.3245]},{"header":{"parameterUnit":"m.s-1","parameterCategory":1,"la1":30.2991,"la2":30.254,"lo1":-89.0895,"lo2":-89.0444,"dy":0.0017,"dx":0.0017,"nx":28,"ny":28,"refTime":"2025-04-14T03:00:00:Z","depth":0,"parameterNumber":3,"parameterNumberName":"V-component_of_WINDS"},"data":[0,0,0,0,0,0,0,0,0,0,0,0,0,0,0,0,0,0,0,0,0,0,0,0,0,0,0,0,0,0,0,0,0,0,0,0,0,0,0,0,0,0,0,0,0,0,0,0,0,0,0,0,0,0,0,0,0,0,-5.4205,-5.4206,0,-5.4263,-5.4263,-5.4264,-5.427,-5.4269,-5.4269,-5.4268,-5.4321,-5.4323,-5.4325,0,0,0,0,0,0,0,0,0,0,0,0,0,-5.4096,-5.4098,-5.4205,-5.4206,-5.4206,-5.4263,-5.4263,-5.4264,-5.427,-5.4269,-5.4269,-5.4268,-5.4321,-5.4323,-5.4325,0,0,0,0,0,0,0,0,0,0,0,0,0,-5.4147,-5.4099,-5.4205,-5.4216,-5.4218,-5.4262,-5.4263,-5.4264,-5.427,-5.4269,-5.4268,-5.4268,-5.432,-5.4323,-5.4326,-5.4361,0,0,-5.4334,-5.4336,0,0,0,0,0,0,0,0,-5.4144,-5.4151,-5.4214,-5.4216,-5.4217,-5.4258,-5.4244,-5.4296,-5.427,-5.425,-5.4268,-5.4267,-5.4301,-5.4305,-5.4318,-5.4363,-5.4366,-5.4335,-5.4336,-5.4338,-5.4339,0,0,0,0,0,0,0,-5.4141,-5.4149,-5.4228,-5.4215,-5.4217,-5.4217,-5.4224,-5.4254,-5.4279,-5.4252,-5.4252,-5.4259,-5.4301,-5.4315,-5.4319,-5.4366,-5.4335,-5.4337,-5.4339,-5.434,-5.4447,-5.4448,0,0,0,0,0,0,-5.4136,-5.4146,-5.4226,-5.4229,-5.4178,-5.422,-5.4227,-5.4246,-5.4279,-5.4283,-5.426,-5.4259,-5.431,-5.4315,-5.4321,-5.4366,-5.4338,-5.434,-5.4342,-5.4446,-5.4447,-5.4448,0,0,0,0,0,0,-5.4134,-5.4143,-5.4223,-5.4188,-5.4198,-5.4223,-5.4244,-5.4248,-5.4261,-5.4285,-5.4289,-5.4269,-5.431,-5.4317,-5.4352,-5.4368,-5.4342,-5.4344,-5.4444,-5.4446,-5.4448,-5.4456,0,0,0,0,0,0,-5.413,-5.4142,-5.4156,-5.4188,-5.42,-5.4255,-5.4245,-5.4249,-5.4267,-5.4266,-5.4295,-5.4299,-5.431,-5.4348,-5.4355,-5.4372,-5.4347,-5.4443,-5.4445,-5.4447,-5.4455,-5.4458,-5.4461,0,0,0,0,0,-5.4127,-5.4154,-5.4157,-5.4167,-5.4219,-5.4256,-5.4262,-5.4275,-5.4268,-5.4282,-5.4299,-5.4298,-5.4365,-5.4351,-5.4359,-5.4377,-5.4442,-5.4445,-5.4447,-5.4453,-5.4457,-5.4461,0,0,0,0,0,0,-5.4121,-5.4159,-5.4162,-5.4201,-5.4226,-5.4257,-5.4275,-5.4279,-5.4304,-5.4302,-5.4316,-5.4322,-5.4358,-5.4371,-5.4354,-5.4415,-5.4403,-5.4407,-5.4405,-5.4409,-5.4412,-5.4408,-5.4349,0,0,0,0,0,-5.4125,-5.4153,-5.4184,-5.4216,-5.4228,-5.425,-5.4266,-5.4275,-5.4299,-5.4309,-5.4327,-5.435,-5.4376,-5.4393,-5.4418,-5.4457,-5.4464,-5.4473,-5.4476,-5.4479,-5.4482,-5.4505,-5.451,-5.4456,-5.4456,-5.4456,0,0,-5.4131,-5.4156,-5.4172,-5.4215,-5.4235,-5.4264,-5.4258,-5.4287,-5.4308,-5.4312,-5.4348,-5.4363,-5.4389,-5.4427,-5.4444,-5.4439,-5.4499,-5.4482,-5.4484,-5.4486,-5.4508,-5.4514,-5.4518,-5.4458,-5.4458,-5.4457,0,0,-5.416,-5.4181,-5.4211,-5.4232,-5.4263,-5.4278,-5.4285,-5.4317,-5.4327,-5.4364,-5.4369,-5.4393,-5.4438,-5.4457,-5.4473,-5.4512,-5.4513,-5.4519,-5.4535,-5.4558,-5.4562,-5.4566,-5.4581,-5.4587,-5.4523,-5.4523,-5.4523,0,-5.4164,-5.4208,-5.4225,-5.4256,-5.4275,-5.4284,-5.4314,-5.4333,-5.437,-5.4382,-5.4377,-5.4435,-5.4453,-5.4497,-5.4507,-5.4518,-5.4527,-5.4516,-5.4561,-5.4565,-5.4569,-5.4583,-5.4589,-5.4523,-5.4523,-5.4523,-5.4523,0,-5.4213,-5.4244,-5.4264,-5.4304,-5.4325,-5.4355,-5.4376,-5.4396,-5.4403,-5.4418,-5.4456,-5.4479,-5.451,-5.4521,-5.4527,-5.4566,-5.4562,-5.4558,-5.4547,-5.4574,-5.4588,-5.4594,-5.4524,-5.4524,-5.4524,-5.4524,0,0,-5.4236,-5.4288,-5.4295,-5.4314,-5.4351,-5.4375,-5.4406,-5.444,-5.4457,-5.4482,-5.4509,-5.4548,-5.4546,-5.4564,-5.4573,-5.4592,-5.4624,-5.4586,-5.4587,-5.4594,-5.467,-5.4673,-5.468,-5.4625,-5.4627,-5.4627,-5.4668,0,-5.4269,-5.4328,-5.4345,-5.4394,-5.4424,-5.4434,-5.4461,-5.4486,-5.4502,-5.4528,-5.4544,-5.4573,-5.4567,-5.4579,-5.4599,-5.4616,-5.464,-5.4613,-5.465,-5.4651,-5.4644,-5.4687,-5.4689,-5.4727,-5.4674,-5.4675,-5.4676,0,-5.4315,-5.4346,-5.4398,-5.4435,-5.4448,-5.4472,-5.4506,-5.4531,-5.456,-5.457,-5.4592,-5.46,-5.4633,-5.462,-5.4665,-5.4647,-5.4663,-5.4674,-5.4676,-5.468,-5.4665,-5.4693,-5.4739,-5.4745,-5.4684,-5.4683,-5.4683,0,-5.4329,-5.4383,-5.4422,-5.4438,-5.4481,-5.4498,-5.4516,-5.4545,-5.4565,-5.4594,-5.4607,-5.4638,-5.4655,-5.4679,-5.4695,-5.4684,-5.4739,-5.4727,-5.4748,-5.4748,-5.4759,-5.4758,-5.481,-5.4768,-5.4768,-5.4768,-5.4768,0,-5.4364,-5.4396,-5.443,-5.4454,-5.449,-5.451,-5.4545,-5.4563,-5.4589,-5.4617,-5.4626,-5.4651,-5.4671,-5.4698,-5.471,-5.4747,-5.4754,-5.4763,-5.4766,-5.4763,-5.4762,-5.4773,-5.4771,-5.477,-5.4769,-5.4769,-5.4769,0,-5.4385,-5.4409,-5.4453,-5.4491,-5.4502,-5.4527,-5.4559,-5.4583,-5.46,-5.4635,-5.4644,-5.467,-5.4704,-5.4723,-5.4763,-5.4771,-5.4813,-5.4814,-5.4804,-5.4805,-5.4826,-5.4824,-5.4887,-5.4896,-5.4848,-5.4849,-5.4849,0,-5.4406,-5.4432,-5.4475,-5.4495,-5.4515,-5.4547,-5.4569,-5.459,-5.4612,-5.4649,-5.4668,-5.4703,-5.4731,-5.4784,-5.4806,-5.4838,-5.484,-5.486,-5.4844,-5.4841,-5.4842,-5.484,-5.4843,-5.4862,-5.4863,-5.4863,-5.4863,0,-5.4441,-5.4453,-5.4486,-5.4523,-5.455,-5.4579,-5.4608,-5.4624,-5.465,-5.4674,-5.471,-5.4733,-5.4777,-5.4811,-5.4846,-5.4863,-5.4867,-5.4869,-5.4875,-5.4872,-5.4866,-5.4871,-5.4812,-5.4867,-5.4866,-5.4866,-5.4866,-5.4866,-5.4464,-5.4488,-5.4524,-5.456,-5.4585,-5.4613,-5.4639,-5.4661,-5.4692,-5.4731,-5.4741,-5.478,-5.481,-5.4857,-5.4875,-5.4905,-5.4901,-5.491,-5.4913,-5.4915,-5.4916,-5.4862,-5.4911,-5.4911,-5.4911,-5.491,-5.491,0,-5.4501,-5.4525,-5.4559,-5.4602,-5.4631,-5.4636,-5.4669,-5.4693,-5.4727,-5.4756,-5.4786,-5.4828,-5.4863,-5.4888,-5.4923,-5.4942,-5.4945,-5.495,-5.4949,-5.4954,-5.4917,-5.4909,-5.4948,-5.4948,-5.4948,-5.4948,-5.4948,-5.4948,-5.4524,-5.4566,-5.4583,-5.4638,-5.4661,-5.4701,-5.472,-5.4746,-5.477,-5.4818,-5.4848,-5.4866,-5.4894,-5.4931,-5.4963,-5.497,-5.4982,-5.4988,-5.4994,-5.496,-5.4956,-5.4952,-5.4944,-5.499,-5.499,-5.5029,-5.5029,-5.5029]}]]